Regional Weather Roundup
Issued by NWS Binghamton, NY

Home | Current Version | Previous Version | Text Only | Print | Product List | Glossary On
Versions: 1 2 3 4 5 6 7 8 9 10 11 12 13 14 15 16 17 18 19 20 21 22 23 24 25 26 27
000
ASUS41 KBGM 261910
RWRBGM

REGIONAL WEATHER ROUNDUP
NATIONAL WEATHER SERVICE BINGHAMTON NY
300 PM EDT FRI MAY 26 2017

Note: "fair" indicates few or no clouds below 12,000 feet with no
significant weather and/or obstructions to visibility.

* = Station(s) that does not report precipitation, such as rain,
snow, etc, also no thunder or fog.

NYZ009-015>018-022>025-036-037-044>046-055>057-062-262000
...Central New York...

CITY           SKY/WX    TMP DP  RH WIND       PRES   REMARKS
Binghamton     LGT RAIN  57  55  93 NW10      29.70R
Cortland       CLOUDY    59  57  94 NW7       29.72R FOG
Dansville      CLOUDY    60  56  86 CALM      29.75R
Elmira         CLOUDY    65  54  67 NW9       29.71R
Seneca Falls   CLOUDY    61  59  94 NW8       29.73R
Ithaca         CLOUDY    58  55  90 NW14      29.73R
Hamilton       CLOUDY    57  52  82 NW12G18   29.70R
Hornell        CLOUDY    61  55  82 NW8       29.78R
Monticello     PTSUNNY   66  54  63 NW16G28   29.67R
Norwich        CLOUDY    63  54  72 NW12G17   29.69R
Oneonta        PTSUNNY   57 N/A N/A NW3       29.68R
Penn Yan       CLOUDY    60  52  74 NW8G17    29.74R
Rome           CLOUDY    58  54  86 W17       29.68R
Sidney         CLOUDY    61  57  88 W13G18    29.68S
Syracuse       CLOUDY    60  54  80 NW13      29.70R
$$

PAZ038>040-043-044-047-048-072-262000
...Northeast Pennsylvania...

CITY           SKY/WX    TMP DP  RH WIND       PRES   REMARKS
Hazleton       RAIN      63  55  77 W18G26    29.75R
Scranton       LGT RAIN  67  55  65 W8        29.67R
$$
&&
KEY
WCI = Wind Chill Index
VSB = Visibility
HX  = Heat Index
$$




USA.gov is the U.S. government's official web portal to all federal, state and local government web resources and services.